Погода в Жезказгане

Хотите узнать прогноз погоды в Жезказгане? Тогда Вам сюда: Погода в Жезказгане

Поиск расширенной информации на нашем сайте:

Полезная информация:

Новости сайта



02.01.2020
Опубликован Долгосрочный прогноз погоды по городам России и ближнего зарубежья на январь 2020 года.
Карты: Прогноз на январь и февраль 2020 года, Сравнение прогнозируемой аномалии приземной температуры воздуха на январь 2020 года по разным моделям.




Погода в Жезказгане - сегодня

Время (UTC), дата Ветер
(°,м/с) 
Видим.   Явления Облачность Т
(°С)
Тd
(°С)
f(%) Тe
(°С)
Pmin
(гПа)
dP
(гПа)
Po
(мм)
O2
(г/м3)
Тmin Tmax R s Состояние
почвы
18 28.11.20 260 (З) 20000 м    4/3 600 м средняя 
[Sc|Ac lent]
-12.6 -15.3 80 -17  1041.7  2.1  747  317    -3.2       
21 28.11.20 260 (З) 20000 м    4/0 средняя 
[Ac lent]
-14.7 -17.5 79 -18  1043  0.9  748  320           
00 29.11.20 260 (З) 20000 м    4/0 средняя 
[Ac lent]
-14 -17.5 75 -18  1044.4  1.4  749  319           
03 29.11.20 320 (СЗ) 20000 м    4/0 средняя 
[Ac lent]
-11.8 -15.7 73 -15  1045.2  1.2  749  317        равномерный
сухой снег
100% 
06 29.11.20 320 (СЗ) 20000 м    ясно 
-9.8 -14.5 69 -13  1046.5  1.5  751  315  -14.8         
09 29.11.20 330 (СЗ) 20000 м    ясно 
-8.6 -15.1 59 -11  1046.2  751  314           
12 29.11.20 320 (СЗ) 20000 м    ясно 
-10.6 -16.7 61 -14  1048.1  1.5  752  317           
15 29.11.20 010 (С) 20000 м    ясно 
-13.8 -18.8 66 -17  1049.4  0.6  752  321    -8.3       
18 29.11.20 020 (С) 20000 м    ясно 
-17.4 -21.7 69 -21  1050.5  0.4  752  325    -8.3       
21 29.11.20 020 (С) 20000 м    ясно 
-19.2 -23.3 70 -22  1050.6  -0.2  752  328           
00 30.11.20 020 (С) 20000 м    ясно 
-21 -24.7 72 -24  1050.6  -0.4  752  330           
03 30.11.20 010 (С) 20000 м    ясно 
-22.4 -26.1 72 -27  1051.1  0.3  752  332        равномерный
сухой снег
100% 
06 30.11.20 020 (С) 20000 м    ясно 
-17.2 -21.4 70 -21  1050.4  0.3  752  325  -22.7         
09 30.11.20 020 (С) 20000 м    ясно 
-15.3 -20 67 -19  1049.1  -1  752  322           
12 30.11.20 020 (С) 20000 м    ясно 
-15.9 -20.3 69 -18  1047.8  -1.3  751  323           
15 30.11.20 020 (С) 20000 м    ясно 
-16.7 -20.9 70 -19  1048  0.1  751  324    -14.8       
18 30.11.20 040 (СВ) 20000 м    ясно 
-17.5 -21.5 71 -21  1047.9  -0.2  751  325    -14.8       
21 30.11.20 040 (СВ) 20000 м    ясно 
-18 -21.7 73 -22  1046.2  -1.8  749  325           
00 01.12.20 040 (СВ) 20000 м    3/0 верхняя 
[Ci fib]
-16.8 -20.5 73 -22  1045.3  -0.6  749  323           
03 01.12.20 040 (СВ) 20000 м    ясно 
-18.6 -22.9 69 -21  1045.9  0.3  749  326  -18.7      равномерный
сухой снег
100% 
06 01.12.20 040 (СВ) 20000 м    ясно 
-17 -22 65 -19  1045.7  0.1  749  324  -18.7         
09 01.12.20 050 (СВ) 20000 м    ясно 
-13.9 -19.6 62 -17  1043.2  -1.9  748  319           
12 01.12.20 040 (СВ) 20000 м    3/0 средняя 
[Ac lent]
-14.3 -19.8 63 -18  1042.5  -0.8  747  319           
15 01.12.20 050 (СВ) 20000 м    3/0 средняя 
[Ac lent]
-14 -19.3 64 -19  1041.9  -0.5  747  319    -13.2       
18 01.12.20 060 (СВ) 20000 м    5/0 средняя 
[Ac lent]
-12.5 -18.3 62 -17  1040.7  -0.9  746  316    -13.2       
Время (UTC), дата Ветер
(°,м/с) 
Видим.   Явления Облачность Т
(°С)
Тd
(°С)
f(%) Тe
(°С)
Pmin
(гПа)
dP
(гПа)
Po
(мм)
O2
(г/м3)
Тmin Tmax R s Состояние
почвы

Для получения пояснительной информации подведите курсор к названию столбца.

ПОГОДА в Жезказгане - архив

Всё, что Вы хотите узнать о погоде в Жезказгане - удобно и подробно!

Выберите нужную дату (начиная с 1 января 2019* года) и нажмите кнопку "Найти".
Будут отображены архивные сводки погоды по пункту Жезказган, начиная с указанной даты.


Отображать данные в формате CSV (для использования в таблицах Excel)


Внимание! Наш архив погоды предназначен исключительно для личного некоммерческого использования в познавательных целях. Если Вам необходимы официальные справки о состоянии погоды (для производственных, юридических, коммерческих и т.п. целей), обращайтесь в органы Росгидромета.

*Примечание: данная дата относится к архиву по метеостанциям СССР (Россия, СНГ, Балтия).
Архив по метеостанциям Зарубежной Европы и Азии (кроме Китая) хранится 10 дней, по другим регионам земного шара (Китай, Африка, Америка, Австралия, Океания) - 1 день.

Жезказган - район местоположения метеостанции


Название, широта, долгота, высота метеостанции:
Жезказган 47.8°ш. 67.7°д. 346 м над ур. моря [Казахстан]

Дополнительная информация

В oтличие oт бoльшинства пoгoдных сайтoв мы публикуем пoдрoбную метеoинфoрмацию в детальнoм прoфессиoнальнoм фoрмате.

Характеристики температуры и влажнoсти вoздуха измеряются на высoте 2 м в тени вдали oт зданий и деревьев.
Скoрoсть ветра измеряется на высoте 10 м (на урoвне рoста челoвека скoрoсть ветра ниже в 1.5-2 раза). Если метеoстанция нахoдится в гoрoде или в лесу, тo скoрoсть ветра занижена на 2-4 м/с пo сравнению с oткрытым местoм. Скoрoсть ветра над акватoриями крупных рек и oзёр, а также на вершинах хoлмoв на 2-5 м/с выше, чем в oбычных услoвиях.
Атмoсфернoе давление в разных тoчках местнoсти мoжет значительнo oтличаться oт давления на метеoстанции, в зависимoсти oт услoвий рельефа (при пoдъёме на 10 м давление пoнижается примернo на 1 мм рт.ст.).